FW0600 Weather Reports


Display with metric or nautical units.
time (UTC)temp
F
wind
direction
speed
MPH
gust
MPH
rain 1hr
in
rain 24hr
in
rain mn
in
humidity
%
barometer
mb
20260503173029 60 107 0.0 0.0 0.00 0.00 0.00 92 1015.7
20260503171527 60 107 0.0 0.0 0.00 0.00 0.00 92 1015.8
20260503081611 71 321 2.0 8.0 0.00 0.00 0.00 81 1017.9
20260503071544 72 290 1.0 5.0 0.00 0.00 0.00 78 1017.9
20260503054545 75 105 2.0 8.0 0.00 0.00 0.00 71 1018.1
20260503053034 76 276 2.0 9.0 0.00 0.00 0.00 70 1018.4
20260503051530 76 278 1.0 7.0 0.00 0.00 0.00 69 1018.4
20260503050036 76 294 2.0 8.0 0.00 0.00 0.00 70 1018.5
20260503044526 76 319 2.0 5.0 0.00 0.00 0.00 68 1018.6
20260503043026 75 266 2.0 8.0 0.00 0.00 0.00 68 1018.6
20260503041525 76 277 3.0 11.0 0.00 0.00 0.00 66 1018.8
20260503040031 76 273 2.0 7.0 0.00 0.00 0.00 65 1018.9
20260503034534 76 283 1.0 7.0 0.00 0.00 0.00 65 1019.0
20260503033027 77 59 2.0 5.0 0.00 0.00 0.00 64 1019.0
20260503031519 78 325 2.0 7.0 0.00 0.00 0.00 62 1019.2
20260503030017 78 302 1.0 6.0 0.00 0.00 0.00 60 1019.5
20260503024514 78 319 0.0 4.0 0.00 0.00 0.00 62 1019.8
20260503023010 79 287 2.0 6.0 0.00 0.00 0.00 59 1019.8
20260503021509 78 297 1.0 6.0 0.00 0.00 0.00 60 1020.1
20260503020105 78 296 1.0 7.0 0.00 0.00 0.00 56 1020.5
20260503014503 78 277 2.0 9.0 0.00 0.00 0.00 55 1020.7
20260503013100 77 53 1.0 8.0 0.00 0.00 0.00 58 1020.7
20260503011603 76 29 0.0 6.0 0.00 0.00 0.00 60 1021.3
20260503010053 76 298 1.0 8.0 0.00 0.00 0.00 61 1021.6
20260503004551 75 293 2.0 9.0 0.00 0.00 0.00 61 1021.6
20260503003049 76 314 1.0 7.0 0.00 0.00 0.00 61 1021.8
20260503001557 76 284 0.0 4.0 0.00 0.00 0.00 66 1021.9
20260503000044 74 129 0.0 2.0 0.00 0.00 0.00 70 1022.0
20260502234538 74 323 0.0 3.0 0.00 0.00 0.00 71 1022.3
20260502233042 73 334 1.0 5.0 0.00 0.00 0.00 71 1022.5
20260502231540 72 326 0.0 2.0 0.00 0.00 0.00 76 1022.8
20260502230025 70 145 0.0 3.0 0.00 0.00 0.00 79 1022.7
20260502224521 68 142 0.0 2.0 0.00 0.00 0.00 84 1022.9
20260502223017 66 135 0.0 3.0 0.00 0.00 0.00 90 1022.8
20260502221515 64 40 0.0 1.0 0.00 0.00 0.00 93 1022.7
20260502220013 63 52 0.0 0.0 0.00 0.00 0.00 94 1022.7
20260502214507 62 51 0.0 1.0 0.00 0.00 0.00 94 1022.6
20260502213004 61 198 0.0 0.0 0.00 0.00 0.00 94 1022.2
20260502211608 60 227 0.0 1.0 0.00 0.00 0.00 93 1022.2
20260502210108 60 97 0.0 0.0 0.00 0.00 0.00 92 1022.2
20260502204554 60 97 0.0 0.0 0.00 0.00 0.00 91 1022.0
20260502203058 60 97 0.0 0.0 0.00 0.00 0.00 92 1022.0
20260502201552 60 97 0.0 0.0 0.00 0.00 0.00 91 1022.1
20260502200050 61 97 0.0 0.0 0.00 0.00 0.00 91 1022.2
20260502194549 61 97 0.0 0.0 0.00 0.00 0.00 91 1022.1
20260502193048 61 97 0.0 0.0 0.00 0.00 0.00 91 1021.8
20260502191547 62 97 0.0 1.0 0.00 0.00 0.00 92 1022.0
20260502190050 61 130 0.0 0.0 0.00 0.00 0.00 91 1021.9
20260502184546 61 130 0.0 0.0 0.00 0.01 0.00 90 1021.8
20260502183044 62 130 0.0 1.0 0.00 0.01 0.00 90 1021.9
20260502181541 62 129 0.0 0.0 0.00 0.01 0.00 89 1021.9